SCP
0 0 0 0 0 0 0 0 0 0 0 0 0 0 0 0 0 0 0 0 0 0 0 0 0 0 0 0 0 0 0 0 0 0 0 0 0 0 0 0 0 0 0 0 0 0 0 0 0
0 0 0 0 0 0 0 0 0 0 0 0 0 0 0 0 0 0 0 0 0 0 0 0 0 0 0 0 0 0 0 0 0 0 0 0 0 0 0 0 0 0 0 0 0 0 0 0 0
0 0 0 0 0 0 0 0 0 0 0 0 0 0 0 0 0 0 0 0 0 0 0 0 0 0 0 0 0 0 0 0 0 0 0 0 0 0 0 0 0 0 0 0 0 0 0 0 0
0 0 0 0 0 0 0 0 0 0 0 0 0 0 0 0 0 0 0 0 0 0 0 0 0 0 0 0 0 0 0 0 0 0 0 0 0 0 0 0 0 0 0 0 0 0 0 0 0
0 0 0 0 0 0 0 0 0 0 0 0 0 0 0 0 0 0 0 0 0 0 0 0 0 0 0 0 0 0 0 0 0 0 0 0 0 0 0 0 0 0 0 0 0 0 0 0 0
0 0 0 0 0 0 0 0 0 0 0 0 0 0 0 0 0 0 0 0 0 0 0 0 0 0 0 0 0 0 0 0 0 0 0 0 0 0 0 0 0 0 0 0 0 0 0 0 0
0 0 0 0 0 0 0 0 0 0 0 0 0 0 0 0 0 0 0 0 0 0 0 0 0 0 0 0 0 0 0 0 0 0 0 0 0 0 0 0 0 0 0 0 0 0 0 0 0
0 0 0 0 0 0 0 0 0 0 0 0 0 0 0 0 0 0 0 0 0 0 0 0 0 0 0 0 0 0 0 0 0 0 0 0 0 0 0 0 0 0 0 0 0 0 0 0 0
0 0 0 0 0 0 0 0 0 0 0 0 0 0 0 0 0 0 0 0 0 0 0 0 0 0 0 0 0 0 0 0 0 0 0 0 0 0 0 0 0 0 0 0 0 0 0 0 0
0 0 0 0 0 0 0 0 0 0 0 0 0 0 0 0 0 0 0 0 0 0 0 0 0 0 0 0 0 0 0 0 0 0 0 0 0 0 0 0 0 0 0 0 0 0 0 0 0
0 0 0 0 0 0 0 0 0 0 0 0 0 0 0 0 0 0 0 0 0 0 0 0 0 -0 -0 0 0 0 0 0 0 0 0 0 0 0 0 0 0 0 0 0 0 0 0 0 0
0 0 0 0 0 0 0 0 0 0 0 0 0 0 0 0 0 0 0 0 0 0 0 0 0 0 0 0 0 0 0 0 0 0 0 0 0 0 0 0 0 0 0 0 0 0 0 0 0
0 0 0 0 0 0 0 0 0 0 0 0 0 0 0 0 0 0 0 0 0 0 0 0 0 0 0 0 0 0 0 0 0 0 0 0 0 0 0 0 0 0 0 0 0 0 0 0 0
0 0 0 0 0 0 0 0 0 0 0 0 0 0 0 0 0 0 0 0 0 0 0 0 0 0 0 0 0 0 0 0 0 0 0 0 0 0 0 0 0 0 0 0 0 0 0 0 0
0 0 0 0 0 0 0 0 0 0 0 0 0 0 0 0 0 0 0 0 0 0 0 0 0 0 0 0 0 0 0 0 0 0 0 0 0 0 0 0 0 0 0 0 0 0 0 0 0
0 0 0 0 0 0 0 0 0 0 0 0 0 0 0 0 0 0 0 0 0 0 0 0 0 0 0 0 0 0 0 0 0 0 0 0 0 0 0 0 0 0 0 0 0 0 0 0 0
0 0 0 0 0 0 0 0 0 0 0 0 0 0 0 0 0 0 0 0 0 0 0 0 0 0 0 0 0 0 0 0 0 0 0 0 0 0 0 0 0 0 0 0 0 0 0 0 0
0 0 0 0 0 0 0 0 0 0 0 0 0 0 0 0 0 0 0 0 0 0 0 0 0 0 0 0 0 0 0 0 0 0 0 0 0 0 0 0 0 0 0 0 0 0 0 0 0
0 0 0 0 0 0 0 0 0 0 0 0 0 0 0 0 0 0 0 0 0 0 0 0 0 0 0 0 0 0 0 0 0 0 0 0 0 0 0 0 0 0 0 0 0 0 0 0 0
0 0 0 0 0 0 0 0 0 0 0 0 0 0 0 0 0 0 0 0 0 0 0 0 0 0 0 0 0 0 0 0 0 0 0 0 0 0 0 0 0 0 0 0 0 0 0 0 0
0 0 0 0 0 0 0 0 0 0 0 0 0 0 0 0 0 0 0 0 0 0 0 0 0 0 0 0 0 0 0 0 0 0 0 0 0 0 0 0 0 0 0 0 0 0 0 0 0
0 0 0 0 0 0 0 0 0 0 0 0 0 0 0 0 0 0 0 0 0 0 0 0 0 0 0 0 0 0 0 0 0 0 0 0 0 0 0 0 0 0 0 0 0 0 0 0 0
0 0 0 0 0 0 0 0 0 0 0 0 0 0 0 0 0 0 0 0 0 0 0 0 0 0 0 0 0 0 0 0 0 0 0 0 0 0 0 0 0 0 0 0 0 0 0 0 0
0 0 0 0 0 0 0 0 0 0 0 0 0 0 0 0 0 0 0 0 0 0 0 0 0 0 0 0 0 0 0 0 0 0 0 0 0 0 0 0 0 0 0 0 0 0 0 0 0
0 0 0 0 0 0 0 0 0 0 0 0 0 0 0 0 0 0 0 0 0 0 0 0 0 0 0 0 0 0 0 0 0 0 0 0 0 0 0 0 0 0 0 0 0 0 0 0 0
0 0 0 0 0 0 0 0 0 0 0 0 0 0 0 0 0 0 0 0 0 0 0 0 0 0 0 0 0 0 0 0 0 0 0 0 0 0 0 0 0 0 0 0 0 0 0 0 0
0 0 0 0 0 0 0 0 0 0 0 0 0 0 0 0 0 0 0 0 0 0 0 0 0 0 0 0 0 0 0 0 0 0 0 0 0 0 0 0 0 0 0 0 0 0 0 0 0
0 0 0 0 0 0 0 0 0 0 0 0 0 0 0 0 0 0 0 0 0 0 0 0 0 0 0 0 0 0 0 0 0 0 0 0 0 0 0 0 0 0 0 0 0 0 0 0 0
0 0 0 0 0 0 0 0 0 0 0 0 0 0 0 0 0 0 0 0 0 0 0 0 0 0 0 0 0 0 0 0 0 0 0 0 0 0 0 0 0 0 0 0 0 0 0 0 0
0 0 0 0 0 0 0 0 0 0 0 0 0 0 0 0 0 0 0 0 0 0 0 0 0 0 0 0 0 0 0 0 0 0 0 0 0 0 0 0 0 0 0 0 0 0 0 0 0
Wind_Speed
11 9 6 2 3 3 1 5 8 6 6 9 9 9 12 11 8 7 2 4 10 11 11 11 11 12 12 11 11 10 10 10 10 10 10 10 9 9 8 8 8 8 8 8 8 8 8 8 7
10 7 4 3 3 2 2 7 10 9 7 6 7 11 12 10 10 8 3 5 10 12 11 11 12 12 12 12 12 11 11 10 10 10 10 9 9 9 8 8 8 7 8 8 7 7 7 7 6
11 7 4 3 3 1 4 7 9 8 6 5 7 11 9 7 8 5 4 7 11 12 11 11 12 12 12 12 12 12 11 11 10 10 9 9 8 8 8 7 7 7 7 7 6 6 6 6 5
5 3 4 3 3 5 6 7 7 7 6 6 8 10 9 9 7 7 7 10 12 12 12 11 12 12 12 12 12 12 11 11 10 10 9 9 8 8 7 7 6 6 6 6 6 5 5 5 5
4 3 4 4 1 6 6 7 6 5 5 7 10 11 9 9 10 9 7 10 12 12 12 11 13 13 12 12 12 11 11 10 10 9 8 8 7 7 6 6 6 6 6 6 6 5 5 4 4
3 3 4 3 3 6 5 6 5 7 7 7 10 11 8 9 8 7 7 9 11 11 12 11 13 13 13 12 11 10 9 9 8 7 7 7 6 6 6 6 6 6 5 5 5 4 4 4 3
4 4 6 3 4 4 5 4 5 6 6 6 7 9 9 8 6 7 8 8 8 10 10 10 9 11 12 12 11 9 8 8 7 6 5 5 5 5 6 6 5 5 5 5 5 4 3 2 2
4 4 6 2 3 5 5 4 5 6 6 5 5 8 9 8 7 7 8 7 7 7 8 9 9 10 9 8 10 9 8 7 5 5 4 4 5 5 5 6 5 4 4 3 3 2 2 1 1
5 4 4 2 3 4 5 4 5 4 6 6 7 10 13 12 10 8 7 6 5 6 5 6 7 7 8 8 9 8 7 6 5 5 6 5 4 4 4 6 6 4 3 2 2 2 2 2 3
4 3 3 4 4 5 5 4 5 4 7 8 11 14 14 11 9 9 8 8 6 6 6 6 5 5 5 5 6 4 4 4 4 3 3 3 2 2 5 7 6 5 4 3 4 4 4 4 3
3 2 2 4 5 4 5 4 4 5 5 8 11 13 13 10 8 8 8 8 6 6 5 5 5 5 5 3 3 1 2 2 2 2 2 2 2 2 3 3 3 4 5 3 3 3 3 2 1
2 2 2 3 4 2 3 4 5 5 6 9 11 12 11 10 8 7 8 8 6 5 4 4 4 5 5 4 2 2 2 2 2 2 2 2 1 1 2 1 1 2 1 0 0 0 1 2 2
2 1 1 2 2 2 4 5 5 6 7 10 12 11 10 9 8 6 7 7 7 5 4 4 3 5 5 3 0 3 3 3 3 1 1 3 1 2 1 2 1 1 1 1 1 2 3 4 4
1 1 2 1 2 3 4 4 5 7 8 10 10 9 8 7 8 8 7 7 7 5 5 3 3 4 5 3 2 3 3 2 3 1 2 3 2 2 2 2 2 2 1 2 2 3 3 3 4
1 2 3 4 4 3 3 3 5 8 9 9 9 8 8 8 8 7 7 7 7 7 6 5 4 4 5 5 4 3 2 4 3 2 2 3 3 3 3 2 2 2 2 3 3 4 3 3 4
6 6 5 6 5 4 4 4 6 9 10 9 8 8 7 6 8 7 7 6 6 7 8 5 5 6 6 5 4 3 3 4 3 3 4 4 4 6 4 3 2 3 3 3 3 3 3 3 3
7 7 6 6 7 5 5 4 6 8 9 9 9 9 8 7 7 7 6 5 6 7 7 6 5 6 5 4 3 4 4 3 3 3 4 5 5 5 4 3 3 3 3 3 3 3 3 2 3
4 5 5 6 7 6 5 5 8 9 9 9 9 9 9 8 7 7 6 6 5 5 7 7 6 6 4 2 4 3 4 4 4 3 3 4 4 5 4 3 4 4 3 3 3 3 2 2 2
5 5 4 3 5 5 5 6 8 9 9 9 9 9 9 8 8 7 7 7 5 4 6 7 6 5 3 2 2 3 3 3 3 3 3 3 4 4 3 3 4 3 3 3 4 3 2 2 2
6 6 4 2 4 4 5 6 7 10 11 11 10 10 10 9 9 7 7 6 6 5 5 6 5 5 4 2 3 3 3 3 3 2 3 4 4 4 3 3 3 3 2 3 3 3 2 1 1
5 6 4 2 2 4 5 7 8 10 10 10 10 10 10 11 11 10 8 6 6 5 4 5 6 5 5 4 3 4 3 2 2 3 3 4 4 4 4 4 3 2 2 2 2 2 2 1 1
5 5 4 3 4 4 6 4 7 10 11 11 11 10 10 11 10 10 8 7 7 6 5 6 6 5 5 5 3 3 3 2 3 3 2 3 4 4 4 3 3 3 3 2 2 3 2 2 1
3 4 4 6 5 7 8 6 5 11 12 13 12 11 10 10 11 10 9 8 7 7 5 5 6 6 5 5 4 3 3 3 3 3 3 3 3 3 3 3 3 3 3 3 4 4 3 2 1
2 4 5 6 4 7 9 7 4 8 12 13 13 12 11 10 10 10 9 8 6 7 5 5 6 6 5 5 4 4 4 4 3 3 3 3 2 2 3 3 3 3 3 3 3 3 3 2 3
5 4 3 3 4 5 5 5 4 5 8 11 13 13 13 10 10 10 9 9 8 8 7 6 7 6 5 4 5 5 4 4 4 3 3 3 2 2 2 3 3 3 3 3 3 3 2 3 3
6 7 4 2 3 2 3 4 2 4 6 9 11 11 12 13 11 11 11 10 9 9 8 7 7 6 6 4 4 4 4 3 2 3 3 3 3 2 3 3 3 3 3 3 3 2 3 3 3
5 6 6 5 7 5 3 3 5 6 6 7 10 11 12 13 13 12 11 10 9 9 8 8 8 7 6 5 4 4 4 4 3 3 3 3 3 3 4 4 3 3 3 3 3 3 4 4 4
7 5 3 3 3 3 3 3 2 7 7 7 8 9 10 12 13 13 12 10 9 8 8 8 7 8 7 5 5 4 4 4 3 3 3 3 4 3 3 3 4 3 3 4 4 3 3 4 3
7 7 5 3 3 3 2 1 1 4 6 6 7 8 9 10 12 12 11 10 10 9 8 7 7 7 6 6 5 5 4 4 3 3 3 3 3 3 3 2 3 4 3 4 3 3 2 3 2
6 6 5 4 3 3 2 2 1 3 5 5 5 7 8 9 9 11 12 11 10 10 9 8 7 7 6 6 6 5 5 5 5 4 3 2 3 3 3 3 3 3 3 4 4 3 3 3 3
Wind_Direction
291 266 248 237 251 240 291 66 74 68 62 52 48 63 70 52 53 89 137 100 102 102 103 95 90 89 89 89 90 89 88 88 89 90 89 87 85 82 79 73 71 71 68 66 63 60 57 56 55
289 289 270 236 250 276 49 68 71 70 77 80 64 67 74 68 73 93 103 95 98 96 92 91 92 92 91 89 88 89 88 89 92 92 89 88 85 82 79 74 70 68 66 63 61 58 56 55 52
272 265 262 247 266 13 80 80 86 87 80 73 75 63 58 70 80 96 123 105 95 94 93 93 94 94 92 90 88 87 87 88 91 89 89 87 86 83 80 79 75 70 66 61 58 57 54 55 51
274 255 244 250 286 54 85 96 99 97 80 68 84 76 65 61 88 113 116 103 100 100 98 98 98 96 94 93 91 90 88 87 86 85 83 84 85 83 80 80 79 74 68 61 56 56 55 53 46
253 257 252 256 267 72 72 87 93 85 85 72 81 89 83 79 95 107 107 104 102 104 105 104 103 101 98 96 94 92 91 90 88 87 85 84 85 86 85 81 77 71 65 59 57 56 55 52 44
266 255 267 266 104 91 82 77 88 92 91 87 95 102 97 104 105 106 98 95 103 107 110 112 112 108 103 100 97 95 95 94 92 92 93 92 94 92 88 82 77 71 66 63 59 56 61 55 40
277 279 272 276 110 105 91 68 66 79 88 84 96 105 114 110 106 105 98 94 100 112 120 125 128 118 112 108 106 103 102 103 104 108 114 121 125 117 107 97 86 78 72 70 66 63 68 64 40
280 287 280 283 107 99 92 79 68 76 86 84 93 116 127 128 124 112 108 109 112 116 123 130 133 132 132 124 122 124 127 130 135 142 157 167 169 154 139 123 104 94 87 87 87 85 95 127 244
272 264 292 8 88 100 114 107 81 83 99 85 74 100 125 135 132 126 118 108 105 108 117 120 124 134 139 138 138 149 151 163 172 188 202 191 194 178 159 122 134 131 133 151 168 184 198 221 239
232 277 322 39 73 111 121 120 119 117 110 102 98 107 124 139 143 143 137 132 134 132 126 123 126 126 118 118 142 166 160 167 187 180 185 195 147 111 119 138 156 169 183 210 225 232 236 234 232
250 268 347 48 72 104 129 131 118 123 112 119 125 132 141 151 152 145 137 128 124 123 123 124 125 118 119 109 109 113 130 153 144 129 131 107 96 129 130 155 169 193 198 226 213 224 239 223 155
273 344 19 59 78 105 125 116 103 100 110 123 132 141 149 158 153 146 131 123 127 118 111 107 119 118 101 94 117 150 110 100 73 26 70 80 66 81 98 124 137 157 160 189 125 66 56 40 61
228 167 105 89 99 118 111 115 111 111 115 126 137 147 159 156 142 131 122 121 113 105 103 87 77 100 104 95 123 96 72 75 90 18 33 94 70 64 79 94 81 62 65 74 49 56 53 39 42
114 116 142 144 141 148 144 141 136 133 134 139 144 152 158 146 140 135 133 133 130 134 121 112 101 97 116 125 98 83 98 94 79 19 25 79 87 79 59 74 64 68 66 50 58 70 63 59 47
194 221 207 196 198 177 157 165 160 147 152 154 156 156 155 146 142 143 141 143 141 141 122 96 98 88 79 71 67 84 78 76 67 22 20 69 71 74 65 59 57 47 63 66 49 55 54 68 65
220 225 224 198 190 193 200 192 159 157 161 156 157 152 146 147 151 145 137 140 130 122 114 110 98 85 75 68 55 61 66 70 64 36 14 34 63 74 56 49 53 55 49 70 71 55 56 57 63
224 230 219 186 187 193 205 183 163 167 167 161 158 150 153 165 153 140 136 129 115 118 120 118 96 88 86 91 79 63 69 61 62 51 25 21 39 65 65 48 49 52 44 49 74 60 59 63 70
240 237 223 198 178 198 201 189 171 180 179 169 160 156 161 166 156 144 131 114 100 106 111 107 96 97 102 95 87 67 60 55 52 52 44 26 35 53 53 55 55 56 51 47 70 80 66 64 51
301 289 263 211 168 194 217 202 181 179 182 176 170 166 165 165 159 148 131 124 118 115 113 119 127 121 119 109 104 99 86 75 61 54 39 32 48 56 59 63 57 55 57 59 68 70 69 63 80
270 275 255 202 168 199 224 226 196 186 189 183 178 176 172 169 161 151 147 146 145 141 139 138 128 117 105 87 107 110 102 96 88 60 41 40 45 42 59 70 81 76 67 61 70 69 57 36 83
262 259 254 247 199 221 224 235 214 191 191 179 181 182 176 176 167 164 164 152 141 151 162 136 128 130 127 105 78 86 82 89 93 83 51 44 49 39 38 45 60 75 86 80 80 80 79 53 17
270 278 265 251 248 245 217 240 213 189 185 185 185 188 184 180 170 168 165 151 155 161 164 144 140 128 116 113 102 114 113 104 103 109 111 80 62 52 37 37 41 59 70 71 66 74 71 80 29
278 310 279 257 257 265 249 249 218 179 188 194 191 192 186 178 170 168 162 158 160 151 149 135 125 118 113 110 111 110 110 112 106 110 112 97 77 63 46 39 35 57 66 67 61 55 36 56 54
251 278 265 254 255 254 240 236 223 191 194 193 191 189 187 180 170 164 156 151 151 139 134 123 123 122 120 134 147 134 128 124 122 122 120 115 108 85 68 58 42 48 56 62 69 75 58 47 41
222 243 247 219 215 240 228 223 219 194 183 185 186 186 183 179 168 165 162 158 156 147 143 135 130 131 144 170 158 150 158 145 139 134 122 117 114 102 82 77 61 56 55 59 59 57 70 64 59
221 232 253 276 254 254 222 223 190 154 159 175 178 180 177 176 172 174 170 163 161 153 150 152 150 153 164 182 169 151 137 120 113 123 124 119 116 115 106 91 81 72 68 63 55 49 54 65 67
233 240 259 284 290 277 228 191 153 144 154 169 171 172 174 175 173 171 164 164 162 158 158 161 158 162 169 181 157 135 134 127 138 137 121 119 124 123 111 110 100 77 66 66 62 57 56 51 45
255 265 259 254 290 287 254 229 170 157 164 168 167 168 172 170 171 168 162 162 161 157 160 163 169 168 169 169 156 142 137 129 130 117 115 122 113 109 126 130 125 115 95 78 66 63 66 78 63
219 238 246 250 249 282 307 336 69 150 152 163 167 167 170 169 168 166 161 162 161 157 162 167 172 162 160 160 147 142 137 140 137 118 115 124 132 138 134 131 122 119 116 107 93 91 73 84 90
240 236 239 245 267 261 271 276 135 129 135 145 157 163 165 166 163 159 158 162 163 164 169 171 169 158 157 153 149 152 148 154 144 147 163 168 142 139 131 117 109 104 98 101 102 97 84 69 72